FW8483 Weather Reports


Display with metric or nautical units.
time (UTC)temp
F
wind
direction
speed
MPH
gust
MPH
rain 1hr
in
rain 24hr
in
rain mn
in
humidity
%
barometer
mb
20260902075016 76 130 0.0 0.0 0.00 0.00 0.00 96 1016.8
20260902074510 76 130 0.0 0.0 0.00 0.00 0.00 96 1016.9
20260902074004 76 130 0.0 0.0 0.00 0.00 0.00 96 1016.8
20260902073506 76 130 0.0 0.0 0.00 0.00 0.00 96 1016.8
20260902073015 76 130 0.0 0.0 0.00 0.00 0.00 96 1016.9
20260902072507 76 130 0.0 0.0 0.00 0.00 0.00 96 1016.8
20260902072007 76 130 0.0 0.0 0.00 0.00 0.00 96 1016.8
20260902071545 76 130 0.0 0.0 0.00 0.00 0.00 96 1016.8
20260902071012 76 130 0.0 0.0 0.00 0.00 0.00 96 1016.7
20260902070511 76 130 0.0 0.0 0.00 0.00 0.00 96 1016.6
20260902070027 76 130 0.0 0.0 0.00 0.00 0.00 96 1016.6
20260902065518 76 130 0.0 0.0 0.00 0.00 0.00 95 1016.6
20260902065014 76 130 0.0 0.0 0.00 0.00 0.00 95 1016.6
20260902064531 76 130 0.0 0.0 0.00 0.00 0.00 96 1016.7
20260902064018 76 130 0.0 0.0 0.00 0.00 0.00 96 1016.8
20260902063503 76 130 0.0 0.0 0.00 0.00 0.00 96 1016.9
20260902063019 76 130 0.0 0.0 0.00 0.00 0.00 96 1016.9
20260902062505 77 130 0.0 0.0 0.00 0.00 0.00 96 1016.9
20260902062006 77 130 0.0 0.0 0.00 0.00 0.00 96 1017.0
20260902061531 77 130 0.0 0.0 0.00 0.00 0.00 96 1017.0
20260902061008 77 130 0.0 0.0 0.00 0.00 0.00 96 1017.0
20260902060512 77 130 0.0 0.0 0.00 0.00 0.00 96 1017.0
20260902060031 77 130 0.0 0.0 0.00 0.00 0.00 96 1017.0
20260902055516 77 130 0.0 0.0 0.00 0.00 0.00 96 1017.0
20260902055012 77 130 0.0 0.0 0.00 0.00 0.00 96 1017.1
20260902054538 77 130 0.0 0.0 0.00 0.00 0.00 96 1017.2
20260902054015 76 126 0.0 0.0 0.00 0.00 0.00 96 1017.1
20260902053514 76 93 0.0 2.0 0.00 0.00 0.00 95 1017.1
20260902053033 76 93 0.0 2.0 0.00 0.00 0.00 95 1017.1
20260902052504 77 93 0.0 2.0 0.00 0.00 0.00 96 1017.1
20260902052004 77 93 0.0 2.0 0.00 0.00 0.00 95 1017.0
20260902051516 77 93 2.0 2.0 0.00 0.00 0.00 95 1017.1
20260902051007 77 238 0.0 4.0 0.00 0.00 0.00 96 1017.0
20260902050507 76 116 0.0 4.0 0.00 0.00 0.00 95 1017.1
20260902050046 77 94 1.0 4.0 0.00 0.00 0.00 96 1017.1
20260902045511 76 275 0.0 4.0 0.00 0.00 0.00 96 1017.1
20260902045012 76 101 3.0 4.0 0.00 0.00 0.00 95 1017.2
20260902044531 76 289 0.0 0.0 0.00 0.00 0.00 95 1017.1
20260902044014 76 102 0.0 0.0 0.00 0.00 0.00 94 1017.1
20260902043517 76 102 0.0 0.0 0.00 0.00 0.00 95 1017.1
20260902043038 76 102 0.0 0.0 0.00 0.00 0.00 95 1017.0
20260902042517 76 102 0.0 2.0 0.00 0.00 0.00 94 1017.0
20260902042017 77 281 0.0 2.0 0.00 0.00 0.00 95 1017.0
20260902041519 76 86 0.0 4.0 0.00 0.00 0.00 94 1016.9
20260902041007 77 86 3.0 4.0 0.00 0.00 0.00 94 1017.0
20260902040508 77 115 0.0 0.0 0.00 0.00 0.00 94 1017.0
20260902040019 77 115 0.0 2.0 0.00 0.00 0.00 94 1017.0
20260902035510 77 115 0.0 2.0 0.00 0.00 0.00 93 1017.0
20260902035013 77 115 0.0 2.0 0.00 0.00 0.00 94 1017.1
20260902034529 77 216 0.0 0.0 0.00 0.00 0.00 94 1017.1
20260902034017 77 216 0.0 0.0 0.00 0.00 0.00 93 1017.4
20260902033512 77 124 0.0 0.0 0.00 0.00 0.00 93 1017.4
20260902033031 77 124 0.0 0.0 0.00 0.00 0.00 93 1017.4
20260902032517 77 124 0.0 0.0 0.00 0.00 0.00 92 1017.3
20260902032018 77 124 0.0 0.0 0.00 0.00 0.00 92 1017.5
20260902031534 77 198 0.0 0.0 0.00 0.00 0.00 92 1017.5
20260902031006 78 198 0.0 0.0 0.00 0.00 0.00 91 1017.6
20260902030505 78 198 0.0 0.0 0.00 0.00 0.00 91 1017.6
20260902030019 78 198 0.0 0.0 0.00 0.00 0.00 90 1017.6
20260902025510 79 198 0.0 0.0 0.00 0.00 0.00 90 1017.4
20260902025009 79 198 0.0 0.0 0.00 0.00 0.00 90 1017.3
20260902024524 79 198 0.0 0.0 0.00 0.00 0.00 89 1017.4
20260902024015 79 198 0.0 0.0 0.00 0.00 0.00 89 1017.4
20260902023512 79 198 0.0 0.0 0.00 0.00 0.00 89 1017.4
20260902023030 79 198 0.0 0.0 0.00 0.00 0.00 89 1017.4
20260902022518 79 198 0.0 0.0 0.00 0.00 0.00 89 1017.3
20260902022017 79 184 0.0 0.0 0.00 0.00 0.00 88 1017.2
20260902021532 80 186 0.0 2.0 0.00 0.00 0.00 87 1017.2
20260902021017 80 186 0.0 2.0 0.00 0.00 0.00 87 1017.1
20260902020520 80 186 0.0 5.0 0.00 0.00 0.00 87 1017.0
20260902020015 80 178 0.0 5.0 0.00 0.00 0.00 87 1016.9
20260902015506 80 236 1.0 6.0 0.00 0.00 0.00 87 1016.9
20260902015012 80 188 0.0 6.0 0.00 0.00 0.00 87 1016.8
20260902014528 80 164 0.0 4.0 0.00 0.00 0.00 87 1016.7
20260902014011 80 256 0.0 0.0 0.00 0.00 0.00 86 1016.6
20260902013513 80 256 0.0 0.0 0.00 0.00 0.00 86 1016.5
20260902013030 80 256 0.0 0.0 0.00 0.00 0.00 84 1016.4
20260902012515 81 256 0.0 0.0 0.00 0.00 0.00 83 1016.4
20260902012014 81 256 0.0 0.0 0.00 0.00 0.00 83 1016.3
20260902011542 81 256 0.0 0.0 0.00 0.00 0.00 82 1016.3
20260902011017 81 256 0.0 0.0 0.00 0.00 0.00 83 1016.2
20260902010518 82 256 0.0 0.0 0.00 0.00 0.00 82 1016.3
20260902010104 82 256 0.0 0.0 0.00 0.00 0.00 80 1016.2
20260902005516 82 256 0.0 0.0 0.00 0.00 0.00 79 1016.3
20260902005010 83 256 0.0 0.0 0.00 0.00 0.00 79 1016.1
20260902004520 83 256 0.0 0.0 0.00 0.00 0.00 78 1016.1
20260902004011 83 256 0.0 0.0 0.00 0.00 0.00 77 1016.1
20260902003512 84 256 0.0 0.0 0.00 0.00 0.00 76 1016.0
20260902003027 84 256 0.0 0.0 0.00 0.00 0.00 76 1016.0
20260902002514 84 256 0.0 0.0 0.00 0.00 0.00 75 1016.0
20260902002013 85 256 0.0 0.0 0.00 0.00 0.00 74 1016.0
20260902001531 85 256 0.0 0.0 0.00 0.00 0.00 73 1016.1
20260902001015 86 256 0.0 0.0 0.00 0.00 0.00 73 1016.0
20260902000517 86 256 0.0 0.0 0.00 0.00 0.00 72 1016.0
20260902000042 86 256 0.0 0.0 0.00 0.00 0.00 71 1016.0
20260901235518 87 256 0.0 0.0 0.00 0.00 0.00 70 1016.0
20260901235018 87 260 0.0 0.0 0.00 0.00 0.00 70 1016.0
20260901234533 87 259 0.0 3.0 0.00 0.00 0.00 70 1016.0
20260901234007 88 96 0.0 4.0 0.00 0.00 0.00 68 1016.0
20260901233508 88 107 2.0 4.0 0.00 0.00 0.00 65 1016.0
20260901233023 89 95 3.0 4.0 0.00 0.00 0.00 65 1016.1
20260901232512 89 98 3.0 4.0 0.00 0.00 0.00 65 1016.1
20260901232014 89 110 2.0 4.0 0.00 0.00 0.00 65 1016.0
20260901231505 89 119 2.0 3.0 0.00 0.00 0.00 66 1016.0
20260901231002 90 110 2.0 3.0 0.00 0.00 0.00 65 1016.0
20260901230502 90 101 1.0 6.0 0.00 0.00 0.00 65 1015.9
20260901230009 90 90 3.0 6.0 0.00 0.00 0.00 63 1015.8
20260901225503 90 90 2.0 4.0 0.00 0.00 0.00 63 1015.9
20260901225007 91 85 3.0 6.0 0.00 0.00 0.00 62 1015.9
20260901224518 91 115 2.0 10.0 0.00 0.00 0.00 63 1016.0
20260901224007 91 96 5.0 10.0 0.00 0.00 0.00 61 1016.0
20260901223508 91 86 4.0 8.0 0.00 0.00 0.00 61 1016.0
20260901223042 91 104 4.0 8.0 0.00 0.00 0.00 62 1015.9
20260901222509 91 92 3.0 10.0 0.00 0.00 0.00 61 1015.9
20260901222016 91 60 5.0 10.0 0.00 0.00 0.00 60 1015.9
20260901221505 92 88 4.0 8.0 0.00 0.00 0.00 61 1015.8
20260901221003 92 109 3.0 8.0 0.00 0.00 0.00 60 1015.8
20260901220502 92 109 2.0 10.0 0.00 0.00 0.00 61 1015.8
20260901220006 92 71 7.0 10.0 0.00 0.00 0.00 59 1015.8
20260901215505 92 71 3.0 10.0 0.00 0.00 0.00 61 1015.8
20260901215002 92 78 4.0 12.0 0.00 0.00 0.00 57 1015.7
20260901214513 92 78 9.0 12.0 0.00 0.00 0.00 60 1015.7
20260901214006 92 100 5.0 11.0 0.00 0.00 0.00 61 1015.6
20260901213508 92 128 4.0 9.0 0.00 0.00 0.00 58 1015.6
20260901213022 92 82 3.0 11.0 0.00 0.00 0.00 59 1015.6
20260901212511 92 94 4.0 11.0 0.00 0.00 0.00 58 1015.7
20260901212011 92 21 3.0 11.0 0.00 0.00 0.00 58 1015.7
20260901211528 92 20 6.0 11.0 0.00 0.00 0.00 56 1015.6
20260901211002 92 114 5.0 10.0 0.00 0.00 0.00 58 1015.6
20260901210503 92 98 7.0 12.0 0.00 0.00 0.00 57 1015.6
20260901210008 92 96 4.0 12.0 0.00 0.00 0.00 60 1015.7
20260901205503 92 54 4.0 8.0 0.00 0.00 0.00 59 1015.7
20260901205002 92 94 5.0 11.0 0.00 0.00 0.00 57 1015.7
20260901204520 92 92 4.0 11.0 0.00 0.00 0.00 58 1015.8
20260901204006 92 88 7.0 14.0 0.00 0.00 0.00 61 1015.8
20260901203507 92 74 7.0 14.0 0.00 0.00 0.00 58 1015.8
20260901203019 92 11 1.0 9.0 0.00 0.00 0.00 57 1015.8
20260901202510 92 35 5.0 13.0 0.00 0.00 0.00 58 1015.9
20260901202009 92 107 7.0 13.0 0.00 0.00 0.00 59 1015.9
20260901201525 92 120 7.0 9.0 0.00 0.00 0.00 59 1015.9
20260901201014 92 111 2.0 11.0 0.00 0.00 0.00 60 1016.0
20260901200513 92 69 8.0 11.0 0.00 0.00 0.00 58 1016.0
20260901200015 92 46 4.0 10.0 0.00 0.00 0.00 58 1016.1
20260901195503 92 74 5.0 10.0 0.00 0.00 0.00 59 1016.2
20260901195003 92 91 5.0 12.0 0.00 0.00 0.00 62 1016.2
20260901194509 91 58 5.0 12.0 0.00 0.00 0.00 58 1016.3
20260901194006 91 87 7.0 11.0 0.00 0.00 0.00 59 1016.3
20260901193507 91 64 3.0 13.0 0.00 0.00 0.00 62 1016.5
20260901193014 91 121 8.0 13.0 0.00 0.00 0.00 61 1016.6
20260901192509 91 92 5.0 10.0 0.00 0.00 0.00 62 1016.5
20260901192008 91 73 5.0 14.0 0.00 0.00 0.00 61 1016.6
20260901191529 91 40 7.0 14.0 0.00 0.00 0.00 61 1016.7
20260901191015 90 54 5.0 14.0 0.00 0.00 0.00 67 1016.7
20260901190513 90 38 3.0 13.0 0.00 0.00 0.00 65 1016.9
20260901190032 90 66 8.0 13.0 0.00 0.00 0.00 62 1016.8
20260901185513 91 126 7.0 12.0 0.00 0.00 0.00 61 1016.9
20260901185003 91 87 7.0 11.0 0.00 0.00 0.00 60 1017.1
20260901184510 90 84 6.0 10.0 0.00 0.00 0.00 64 1017.1
20260901184006 90 94 6.0 10.0 0.00 0.00 0.00 63 1017.1
20260901183506 91 86 5.0 10.0 0.00 0.00 0.00 62 1017.2
20260901183013 91 74 3.0 11.0 0.00 0.00 0.00 61 1017.3
20260901182507 90 38 7.0 11.0 0.00 0.00 0.00 60 1017.4
20260901182008 90 51 8.0 11.0 0.00 0.00 0.00 62 1017.4
20260901181522 90 317 4.0 11.0 0.00 0.00 0.00 64 1017.5
20260901181012 90 68 5.0 11.0 0.00 0.00 0.00 67 1017.5
20260901180511 90 18 5.0 16.0 0.00 0.00 0.00 63 1017.6
20260901180032 90 17 5.0 16.0 0.00 0.00 0.00 64 1017.7
20260901175513 90 51 5.0 8.0 0.00 0.00 0.00 65 1017.7
20260901175015 90 41 3.0 10.0 0.00 0.00 0.00 64 1017.8
20260901174535 90 82 4.0 12.0 0.00 0.00 0.00 66 1017.9
20260901174007 90 328 7.0 12.0 0.00 0.00 0.00 67 1017.9
20260901173504 90 74 7.0 11.0 0.00 0.00 0.00 65 1018.0
20260901173011 89 98 5.0 10.0 0.00 0.00 0.00 63 1018.1
20260901172504 89 91 4.0 10.0 0.00 0.00 0.00 66 1018.3
20260901172008 89 67 6.0 15.0 0.00 0.00 0.00 63 1018.3
20260901171517 90 48 4.0 15.0 0.00 0.00 0.00 62 1018.2
20260901171009 89 94 10.0 15.0 0.00 0.00 0.00 65 1018.3
20260901170511 89 101 8.0 11.0 0.00 0.00 0.00 64 1018.4
20260901170036 89 61 6.0 11.0 0.00 0.00 0.00 65 1018.4
20260901165512 89 74 4.0 11.0 0.00 0.00 0.00 67 1018.4
20260901165015 89 83 4.0 10.0 0.00 0.00 0.00 66 1018.5
20260901164533 89 13 5.0 10.0 0.00 0.00 0.00 66 1018.4
20260901164015 89 58 5.0 10.0 0.00 0.00 0.00 66 1018.4
20260901163503 89 89 5.0 10.0 0.00 0.00 0.00 67 1018.4
20260901163017 88 39 6.0 10.0 0.00 0.00 0.00 70 1018.5
20260901162504 88 51 4.0 11.0 0.00 0.00 0.00 72 1018.5
20260901162004 88 74 7.0 11.0 0.00 0.00 0.00 71 1018.4
20260901161515 88 14 3.0 10.0 0.00 0.00 0.00 71 1018.5
20260901161010 88 71 7.0 10.0 0.00 0.00 0.00 72 1018.4
20260901160508 88 30 4.0 9.0 0.00 0.00 0.00 73 1018.4
20260901160032 87 56 2.0 8.0 0.00 0.00 0.00 73 1018.4
20260901155510 87 338 3.0 8.0 0.00 0.00 0.00 75 1018.5
20260901155011 87 38 4.0 8.0 0.00 0.00 0.00 73 1018.6
20260901154527 87 352 3.0 9.0 0.00 0.00 0.00 72 1018.7
20260901154017 87 51 7.0 9.0 0.00 0.00 0.00 72 1018.7
20260901153514 87 82 4.0 9.0 0.00 0.00 0.00 74 1018.7
20260901153032 87 61 4.0 9.0 0.00 0.00 0.00 74 1018.7
20260901152502 87 9 4.0 9.0 0.00 0.00 0.00 75 1018.7
20260901152003 86 86 4.0 9.0 0.00 0.00 0.00 77 1018.7
20260901151514 86 74 4.0 9.0 0.00 0.00 0.00 77 1018.7
20260901151007 85 56 5.0 9.0 0.00 0.00 0.00 76 1018.7
20260901150509 85 33 3.0 8.0 0.00 0.00 0.00 78 1018.7
20260901150021 86 48 4.0 7.0 0.00 0.00 0.00 78 1018.7
20260901145511 86 80 4.0 7.0 0.00 0.00 0.00 76 1018.7
20260901145012 85 48 2.0 5.0 0.00 0.00 0.00 78 1018.7
20260901144527 85 61 1.0 8.0 0.00 0.00 0.00 80 1018.8
20260901144015 85 5 4.0 8.0 0.00 0.00 0.00 78 1018.7
20260901143514 84 67 2.0 8.0 0.00 0.00 0.00 81 1018.6
20260901143030 84 32 4.0 8.0 0.00 0.00 0.00 81 1018.6
20260901142518 84 61 3.0 7.0 0.00 0.00 0.00 84 1018.7
20260901142017 83 26 3.0 7.0 0.00 0.00 0.00 82 1018.7
20260901141513 83 72 5.0 7.0 0.00 0.00 0.00 82 1018.6
20260901141003 83 69 3.0 6.0 0.00 0.00 0.00 82 1018.5
20260901140509 83 52 3.0 5.0 0.00 0.00 0.00 83 1018.5
20260901140022 83 69 0.0 7.0 0.00 0.00 0.00 85 1018.5
20260901135512 82 59 2.0 7.0 0.00 0.00 0.00 84 1018.5
20260901135009 82 72 3.0 6.0 0.00 0.00 0.00 85 1018.5
20260901134523 82 74 3.0 6.0 0.00 0.00 0.00 86 1018.5
20260901134013 81 113 2.0 8.0 0.00 0.00 0.00 86 1018.4
20260901133503 81 51 3.0 8.0 0.00 0.00 0.00 87 1018.3
20260901133004 81 74 5.0 8.0 0.00 0.00 0.00 86 1018.3
20260901132505 80 92 3.0 7.0 0.00 0.00 0.00 87 1018.2
20260901132005 80 42 3.0 5.0 0.00 0.00 0.00 87 1018.2
20260901131514 80 24 2.0 4.0 0.00 0.00 0.00 90 1018.2
20260901131003 79 68 2.0 4.0 0.00 0.00 0.00 89 1018.2
20260901130507 79 86 3.0 5.0 0.00 0.00 0.00 89 1018.2
20260901130016 79 53 3.0 5.0 0.00 0.00 0.00 90 1018.2
20260901125509 79 72 1.0 5.0 0.00 0.00 0.00 91 1018.3
20260901125011 78 34 1.0 5.0 0.00 0.00 0.00 91 1018.2
20260901124522 78 35 2.0 4.0 0.00 0.00 0.00 92 1018.2
20260901124012 78 67 3.0 4.0 0.00 0.00 0.00 92 1018.3
20260901123512 77 53 0.0 4.0 0.00 0.00 0.00 94 1018.2
20260901123037 77 74 2.0 4.0 0.00 0.00 0.00 94 1018.2
20260901122504 77 54 2.0 4.0 0.00 0.00 0.00 94 1018.3
20260901122003 76 75 2.0 4.0 0.00 0.00 0.00 95 1018.2
20260901121508 76 66 2.0 4.0 0.00 0.00 0.00 96 1018.3
20260901121004 76 57 0.0 3.0 0.00 0.00 0.00 96 1018.3
20260901120504 75 65 1.0 3.0 0.00 0.00 0.00 96 1018.1
20260901120015 75 13 0.0 2.0 0.00 0.00 0.00 97 1018.0
20260901115510 75 70 0.0 0.0 0.00 0.00 0.00 97 1018.0
20260901115008 75 78 0.0 0.0 0.00 0.00 0.00 97 1017.9
20260901114520 75 66 0.0 0.0 0.00 0.00 0.00 97 1017.8
20260901114009 75 57 0.0 0.0 0.00 0.00 0.00 97 1017.7
20260901113513 74 37 0.0 2.0 0.00 0.00 0.00 97 1017.7
20260901113027 74 42 0.0 2.0 0.00 0.00 0.00 97 1017.9
20260901112512 74 52 0.0 1.0 0.00 0.00 0.00 97 1017.9
20260901112018 74 52 0.0 1.0 0.00 0.00 0.00 97 1017.9
20260901111508 74 41 0.0 0.0 0.00 0.00 0.00 97 1017.9
20260901111004 74 43 0.0 0.0 0.00 0.00 0.00 97 1017.8
20260901110504 75 43 0.0 0.0 0.00 0.00 0.00 97 1017.7
20260901110019 75 43 0.0 0.0 0.00 0.00 0.00 97 1017.6
20260901105506 75 43 0.0 0.0 0.00 0.00 0.00 97 1017.5
20260901105009 75 44 0.0 0.0 0.00 0.00 0.00 97 1017.4
20260901104527 75 12 0.0 0.0 0.00 0.00 0.00 97 1017.3
20260901104009 74 9 0.0 0.0 0.00 0.00 0.00 97 1017.2
20260901103509 74 15 0.0 0.0 0.00 0.00 0.00 97 1017.1
20260901103025 74 15 0.0 0.0 0.00 0.00 0.00 97 1017.1
20260901102514 74 15 0.0 0.0 0.00 0.00 0.00 97 1017.0
20260901102015 74 15 0.0 0.0 0.00 0.00 0.00 97 1017.0
20260901101530 74 15 0.0 0.0 0.00 0.00 0.00 97 1017.0
20260901101002 74 15 0.0 0.0 0.00 0.00 0.00 97 1017.0
20260901100504 74 15 0.0 0.0 0.00 0.00 0.00 97 1017.0
20260901100013 74 15 0.0 0.0 0.00 0.00 0.00 97 1016.9
20260901095507 74 15 0.0 0.0 0.00 0.00 0.00 97 1016.8
20260901095008 74 15 0.0 0.0 0.00 0.00 0.00 97 1016.7
20260901094519 75 15 0.0 0.0 0.00 0.00 0.00 97 1016.6
20260901094009 75 15 0.0 0.0 0.00 0.00 0.00 97 1016.7
20260901093509 75 15 0.0 0.0 0.00 0.00 0.00 97 1016.6
20260901093026 75 15 0.0 0.0 0.00 0.00 0.00 97 1016.5
20260901092515 75 15 0.0 0.0 0.00 0.00 0.00 97 1016.5
20260901092017 75 15 0.0 0.0 0.00 0.00 0.00 97 1016.6
20260901091532 75 15 0.0 0.0 0.00 0.00 0.00 97 1016.6
20260901091015 75 15 0.0 0.0 0.00 0.00 0.00 97 1016.6
20260901090514 75 15 0.0 0.0 0.00 0.00 0.00 97 1016.5
20260901090025 75 15 0.0 0.0 0.00 0.00 0.00 97 1016.6
20260901085503 75 15 0.0 0.0 0.00 0.00 0.00 97 1016.6
20260901085007 75 15 0.0 0.0 0.00 0.00 0.00 97 1016.6
20260901084516 75 15 0.0 0.0 0.00 0.00 0.00 97 1016.6
20260901084007 75 15 0.0 0.0 0.00 0.00 0.00 97 1016.7
20260901083512 75 15 0.0 0.0 0.00 0.00 0.00 97 1016.6
20260901083033 75 15 0.0 0.0 0.00 0.00 0.00 97 1016.6
20260901082510 75 15 0.0 0.0 0.00 0.00 0.00 96 1016.6
20260901082014 75 15 0.0 0.0 0.00 0.00 0.00 96 1016.7
20260901081527 75 15 0.0 0.0 0.00 0.00 0.00 97 1016.6
20260901081014 75 15 0.0 0.0 0.00 0.00 0.00 97 1016.6
20260901080515 75 15 0.0 0.0 0.00 0.00 0.00 97 1016.6
20260901080033 74 15 0.0 0.0 0.00 0.00 0.00 96 1016.6
20260901075516 75 15 0.0 0.0 0.00 0.00 0.00 96 1016.6